Regional Weather Roundup
Issued by NWS

Home | Current Version | Previous Version | Graphics & Text | Print | Product List | Glossary On
Versions: 1 2 3 4 5 6 7 8 9 10 11 12 13 14 15 16 17 18 19 20 21 22 23 24 25 26 27 28 29 30 31 32 33 34 35 36 37 38 39 40 41 42 43 44 45 46 47 48 49 50
000
ASUS43 KMKX 200510
RWRWI

WISCONSIN REGIONAL WEATHER ROUNDUP
NATIONAL WEATHER SERVICE MILWAUKEE/SULLIVAN WI
1100 PM CST MON FEB 19 2018

NOTE: "FAIR" INDICATES FEW OR NO CLOUDS BELOW 12,000 FEET WITH NO
SIGNIFICANT WEATHER AND/OR OBSTRUCTIONS TO VISIBILITY.

WIZ001-002-006>008-014>016-023>028-200600-
NORTHWEST WISCONSIN

CITY           SKY/WX    TMP DP  RH WIND       PRES   REMARKS
SUPERIOR ARPT  LGT SNOW  19  15  83 NE17G29   30.02F WCI   4
ASHLAND        LGT SNOW  19  16  88 NE22G32   30.00F FOG     WCI   2
HAYWARD        FRZ RAIN  19  14  81 NE12G23   29.93S WCI   7
SIREN          CLOUDY    19  17  93 NE7       29.93F FOG     WCI   9
CUMBERLAND     CLOUDY    18  16  93 NE10      29.89F FOG     WCI   6
RICE LAKE      CLOUDY    19  17  94 N10       29.91F FOG     WCI   7
CHETEK         CLOUDY    19  17  92 NE7       29.89F WCI  10
LADYSMITH      CLOUDY    20  17  91 NE8       29.90S WCI  10
EAU CLAIRE     CLOUDY    22  19  89 NE10      29.87R WCI  11
MENOMONIE      CLOUDY    22  20  93 N8        29.88F FOG     WCI  13
NEW RICHMOND   CLOUDY    19  16  87 NE10      29.90S WCI   8
OSCEOLA        CLOUDY    20  18  93 NE9       29.94F WCI   9
$$

WIZ003>005-009-010-017-018-200600-
NORTH CENTRAL WISCONSIN

CITY           SKY/WX    TMP DP  RH WIND       PRES   REMARKS
MANITOWISH WTR MIX PCPN  16  16 100 NE7       29.90R WCI   6
ARBOR VITAE    CLOUDY    19  18  93 N5        29.88R FOG     WCI  13
WOODRUFF       CLOUDY    19  18  93 N5        29.88R FOG     WCI  13
RHINELANDER    CLOUDY    21  20  96 NE6       29.86S FOG     WCI  13
EAGLE RIVER    CLOUDY    20  19  97 NE8       29.87S WCI  10
LAND O LAKES   MIX PCPN  20  18  93 NE9       29.90S WCI   9
PHILLIPS       CLOUDY    17  16  97 NE12      29.88S WCI   4
TOMAHAWK       CLOUDY    20  19  93 NE3       29.86S FOG
MEDFORD        CLOUDY    21  19  93 NE8       29.82F WCI  11
MERRILL        CLOUDY    23  22  96 NE6       29.86S FOG     WCI  16
$$

WIZ029-030-035-036-043>047-200600-
CENTRAL WISCONSIN

CITY           SKY/WX    TMP DP  RH WIND       PRES   REMARKS
WAUSAU         CLOUDY    26  25  96 NE7       29.82F FOG     WCI  18
MOSINEE        NOT AVBL
MARSHFIELD     CLOUDY    26  25  96 NE12      29.80F FOG     WCI  16
STEVENS POINT  MIX PCPN  25  25 100 NE7       29.83F WCI  17
WAUPACA        CLOUDY    31  29  92 N6        29.82F FOG     WCI  25
WAUTOMA        CLOUDY    29  28  96 NE9       29.81F FOG     WCI  20
WISC RAPIDS    CLOUDY    27  24  89 NE7       29.83S FOG     WCI  19
CAMP DOUGLAS   FRZ DRZL  30  30  99 CALM      29.81R
$$

WIZ011>013-019>022-031-037>040-048>050-200600-
NORTHEAST WISCONSIN

CITY           SKY/WX    TMP DP  RH WIND       PRES   REMARKS
ANTIGO         CLOUDY    24  24  99 NE10      29.83F FOG     WCI  14
SHAWANO        CLOUDY    29  27  91 NE10      29.85F FOG     WCI  20
OCONTO         CLOUDY    28  28  96 N8        29.85F WCI  20
STURGEON BAY   MIX PCPN  33  31  92 NE10      29.84F FOG     WCI  25
GREEN BAY      CLOUDY    28  26  92 N12       29.83F WCI  18
MANITOWOC      LGT RAIN  35  34  96 N5        29.81F FOG     WCI  31
APPLETON       CLOUDY    28  27  93 N12       29.80R FOG     WCI  18
CLINTONVILLE   CLOUDY    28  26  93 NE9       29.84F FOG     WCI  19
OSHKOSH        CLOUDY    31  30  96 N10       29.80S FOG     WCI  22
$$

WIZ032>034-041-042-053>061-200600-
SOUTHWEST WISCONSIN

CITY           SKY/WX    TMP DP  RH WIND       PRES   REMARKS
LA CROSSE      CLOUDY    32  31  96 N3        29.81S FOG
SPARTA         CLOUDY    29  29  99 NE6       29.82S FOG     WCI  23
VIROQUA        CLOUDY    31  31 100 NE9       29.77S WCI  23
BOSCOBEL       FOG       36  35  96 CALM      29.80R VSB 3/4
PRAIRIE DU CHI FOG       35  34  96 CALM      29.79R VSB 1/2
PLATTEVILLE    CLOUDY    37  37 100 SW5       29.77F VSB 1/4 WCI  33
$$

WIZ056-057-062-063-064-067-068-200600-
SOUTH CENTRAL WISCONSIN

CITY           SKY/WX    TMP DP  RH WIND       PRES   REMARKS
REEDSBURG      CLOUDY    30  30 100 NE6       29.79S FOG     WCI  24
BARABOO/DELLS  FOG       30  29  97 NE7       29.79R VSB 1   WCI  23
LONE ROCK      CLOUDY    34  34 100 E5        29.79R FOG     WCI  30
MINERAL POINT  LGT RAIN  36  36 100 CALM      29.76R VSB 1/4
MADISON        DRIZZLE   34  34 100 N3        29.78R FOG
MIDDLETON      CLOUDY    35  35 100 CALM      29.78R
WATERTOWN      DRIZZLE   37  37 100 CALM      29.76R
MONROE         FOG       45  45 100 SW8       29.76R VSB 1/4
JANESVILLE     LGT RAIN  39  39 100 CALM      29.76S VSB 1/4
$$

WIZ051-052-058>065-066-070>072-200600-
SOUTHEAST WISCONSIN

CITY           SKY/WX    TMP DP  RH WIND       PRES   REMARKS
MILWAUKEE      DRZL/FOG  37  36  96 CALM      29.78S VSB 1
WAUKESHA       CLOUDY    34  34 100 NW5       29.79R FOG     WCI  30
MILWAUKEE/TIMM DRIZZLE   36  32  87 CALM      29.79S
RACINE         LGT RAIN  37  36  96 CALM      29.79F VSB 1/2
BURLINGTON     FOG       37  36  96 SW3       29.77S VSB 1/4
KENOSHA        LGT RAIN  55  54  96 S16       29.77F FOG
FOND DU LAC    CLOUDY    34  31  88 NE7       29.78F FOG     WCI  28
SHEBOYGAN      LGT RAIN  35  35 100 NE8       29.79S FOG     WCI  29
WEST BEND      DRIZZLE   34  34 100 CALM      29.79R
JUNEAU         RAIN      33  33  99 CALM      29.78R
$$

LSZ147-162-200600-
LAKE SUPERIOR

STATION/POSITION TIME  TEMP    WIND        PRES    WAVE
                       AIR SEA DIR/SP/G            HT/PER
                 (UTC) (F)     (DEG/KT/KT) (MB)    (FT/S)
DEVILS ISLAND    0500   19      50/ 31/ 38 1018.3F
SAXON HARBOR     0430   19      50/ 24/ 30 1015.9F
$$

LMZ867-665-643>646-200600-
LAKE MICHIGAN

STATION/POSITION TIME  TEMP    WIND        PRES    WAVE
                       AIR SEA DIR/SP/G            HT/PER
                 (UTC) (F)     (DEG/KT/KT) (MB)    (FT/S)
NORTHPORT PIER   0445   33                 1011.2F
KEWAUNEE LAKESHO 0448   34      20/  8/ 12 1008.9F
SHEBOYGAN LAKESH 0500   34     350/ 11/ 12 1009.2F
PORT WASHINGTON  0440   37     350/  2/  5 1009.8F
MILWAUKEE LAKESH 0450   36     360/  1/  2   N/A
KENOSHA   LAKESH 0500   35        CALM     1008.8
$$

TC  - TEMPERATURE IN CELSIUS
VSB - VISIBILITY IN STATUTE MILES
WCI - WIND CHILL INDEX
HX  - HEAT INDEX





USA.gov is the U.S. government's official web portal to all federal, state and local government web resources and services.